When you browse on this site, cookies collect data to enhance your experience and personalize the content and advertising you see.
Visit our Privacy Policy to learn more. By continuing to use the site, you agree to this use of cookies and data.
  • In United Kingdom
  • List of Countries
  • For 7 days
  • Water Temperature
  • Satellite Maps
  • Weather Map
  • Weather Widgets
  • user-avatar
    Login

    Hourly Weather Kandi

    Today, 26 May, Sunday

    Time Temperature Precipitation Wind Pressure Humidity
    00:00 +34°C° 0 mm 3 mps 736 mmHg 56%
    01:00 +32°C° 0 mm 2 mps 736 mmHg 57%
    02:00 +32°C° 0 mm 2 mps 736 mmHg 58%
    03:00 +32°C° 0 mm 2 mps 736 mmHg 59%
    04:00 +31°C° 0 mm 2 mps 736 mmHg 60%
    05:00 +31°C° 0 mm 2 mps 736 mmHg 62%
    06:00 +31°C° 0 mm 2 mps 736 mmHg 63%
    07:00 +32°C° 0 mm 2 mps 736 mmHg 57%
    08:00 +35°C° 0 mm 2 mps 737 mmHg 50%
    09:00 +37°C° 0 mm 2 mps 737 mmHg 44%
    10:00 +40°C° 0 mm 2 mps 736 mmHg 37%
    11:00 +42°C° 0 mm 1 mps 736 mmHg 31%
    12:00 +45°C° 0 mm 1 mps 736 mmHg 25%
    13:00 +45°C° 0 mm 1 mps 735 mmHg 24%
    14:00 +44°C° 0 mm 1 mps 734 mmHg 23%
    15:00 +44°C° 0 mm 1 mps 734 mmHg 22%
    16:00 +43°C° 0 mm 1 mps 734 mmHg 24%
    17:00 +39°C° 0 mm 0 mps 734 mmHg 26%
    18:00 +38°C° 0 mm 0 mps 734 mmHg 28%
    19:00 +40°C° 0.1 mm 1 mps 734 mmHg 31%
    20:00 +37°C° 0.1 mm 1 mps 734 mmHg 35%
    21:00 +37°C° 0.1 mm 2 mps 735 mmHg 39%
    22:00 +37°C° 0 mm 2 mps 735 mmHg 41%
    23:00 +36°C° 0 mm 3 mps 735 mmHg 44%

    Tomorrow, 27 May, Monday

    Time Temperature Precipitation Wind Pressure Humidity
    00:00 +35°C° 0 mm 3 mps 735 mmHg 47%
    01:00 +34°C° 0.1 mm 4 mps 735 mmHg 51%
    02:00 +33°C° 0.1 mm 4 mps 734 mmHg 55%
    03:00 +33°C° 0.1 mm 4 mps 734 mmHg 59%
    04:00 +32°C° 0 mm 4 mps 734 mmHg 62%
    05:00 +30°C° 0 mm 4 mps 735 mmHg 65%
    06:00 +30°C° 0 mm 4 mps 735 mmHg 67%
    07:00 +30°C° 0.4 mm 4 mps 736 mmHg 65%
    08:00 +32°C° 0.4 mm 4 mps 736 mmHg 62%
    09:00 +32°C° 0.4 mm 4 mps 736 mmHg 60%
    10:00 +34°C° 0 mm 4 mps 736 mmHg 52%
    11:00 +36°C° 0 mm 4 mps 736 mmHg 44%
    12:00 +40°C° 0 mm 4 mps 736 mmHg 36%
    13:00 +41°C° 0 mm 4 mps 735 mmHg 34%
    14:00 +42°C° 0 mm 3 mps 734 mmHg 31%
    15:00 +43°C° 0 mm 3 mps 733 mmHg 28%
    16:00 +42°C° 0 mm 3 mps 733 mmHg 31%
    17:00 +39°C° 0 mm 2 mps 734 mmHg 33%
    18:00 +38°C° 0 mm 2 mps 734 mmHg 36%
    19:00 +37°C° 0 mm 2 mps 734 mmHg 39%
    20:00 +36°C° 0 mm 2 mps 735 mmHg 43%
    21:00 +35°C° 0 mm 2 mps 735 mmHg 46%
    22:00 +35°C° 0 mm 2 mps 735 mmHg 50%
    23:00 +34°C° 0 mm 2 mps 735 mmHg 53%

    Day after tomorrow, 28 May, Tuesday

    Time Temperature Precipitation Wind Pressure Humidity
    00:00 +34°C° 0 mm 2 mps 735 mmHg 56%
    01:00 +32°C° 0 mm 2 mps 735 mmHg 57%
    02:00 +32°C° 0 mm 2 mps 735 mmHg 59%
    03:00 +31°C° 0 mm 2 mps 734 mmHg 60%
    04:00 +31°C° 0 mm 2 mps 735 mmHg 62%
    05:00 +31°C° 0 mm 3 mps 735 mmHg 64%
    06:00 +30°C° 0 mm 3 mps 735 mmHg 65%
    07:00 +33°C° 0 mm 3 mps 736 mmHg 60%
    08:00 +34°C° 0 mm 4 mps 736 mmHg 54%
    09:00 +35°C° 0 mm 4 mps 737 mmHg 48%
    10:00 +37°C° 0 mm 4 mps 736 mmHg 45%
    11:00 +38°C° 0 mm 3 mps 736 mmHg 41%
    12:00 +40°C° 0 mm 3 mps 736 mmHg 37%
    13:00 +40°C° 0 mm 3 mps 735 mmHg 36%
    14:00 +42°C° 0 mm 3 mps 734 mmHg 34%
    15:00 +42°C° 0 mm 3 mps 734 mmHg 33%
    16:00 +40°C° 0 mm 3 mps 734 mmHg 35%
    17:00 +39°C° 0 mm 3 mps 734 mmHg 37%
    18:00 +39°C° 0 mm 2 mps 734 mmHg 39%
    19:00 +37°C° 0.3 mm 3 mps 734 mmHg 44%
    20:00 +36°C° 0.3 mm 3 mps 735 mmHg 49%
    21:00 +35°C° 0.3 mm 3 mps 735 mmHg 55%
    22:00 +34°C° 0.1 mm 3 mps 735 mmHg 56%
    23:00 +34°C° 0.1 mm 3 mps 735 mmHg 57%

    29 May, Wednesday

    Time Temperature Precipitation Wind Pressure Humidity
    00:00 +33°C° 0.1 mm 3 mps 735 mmHg 58%
    01:00 +33°C° 0 mm 3 mps 735 mmHg 58%
    02:00 +33°C° 0 mm 3 mps 735 mmHg 58%
    03:00 +33°C° 0 mm 3 mps 734 mmHg 58%
    04:00 +33°C° 0 mm 3 mps 735 mmHg 59%
    05:00 +31°C° 0 mm 3 mps 735 mmHg 60%
    06:00 +31°C° 0 mm 3 mps 735 mmHg 61%
    07:00 +33°C° 0 mm 3 mps 736 mmHg 58%
    08:00 +34°C° 0 mm 4 mps 736 mmHg 54%
    09:00 +35°C° 0 mm 4 mps 736 mmHg 50%
    10:00 +37°C° 0 mm 3 mps 736 mmHg 45%
    11:00 +39°C° 0 mm 3 mps 736 mmHg 40%
    12:00 +42°C° 0 mm 3 mps 735 mmHg 35%
    13:00 +41°C° 0 mm 2 mps 734 mmHg 33%
    14:00 +42°C° 0 mm 2 mps 734 mmHg 30%
    15:00 +43°C° 0 mm 1 mps 733 mmHg 28%
    16:00 +42°C° 0 mm 2 mps 733 mmHg 31%
    17:00 +41°C° 0 mm 2 mps 733 mmHg 33%
    18:00 +39°C° 0 mm 2 mps 733 mmHg 36%
    19:00 +38°C° 0.8 mm 2 mps 734 mmHg 42%
    20:00 +37°C° 0.8 mm 3 mps 734 mmHg 48%
    21:00 +36°C° 0.8 mm 3 mps 735 mmHg 54%
    22:00 +34°C° 6 mm 3 mps 735 mmHg 61%
    23:00 +33°C° 6 mm 3 mps 734 mmHg 68%

    30 May, Thursday

    Time Temperature Precipitation Wind Pressure Humidity
    00:00 +31°C° 6 mm 3 mps 734 mmHg 75%
    01:00 +30°C° 14.5 mm 4 mps 734 mmHg 77%
    02:00 +29°C° 14.5 mm 4 mps 734 mmHg 79%
    03:00 +29°C° 14.5 mm 5 mps 735 mmHg 81%
    04:00 +29°C° 0.1 mm 4 mps 735 mmHg 81%
    05:00 +29°C° 0.1 mm 3 mps 735 mmHg 81%
    06:00 +29°C° 0.1 mm 2 mps 735 mmHg 81%
    07:00 +29°C° 0 mm 3 mps 735 mmHg 78%
    08:00 +30°C° 0 mm 3 mps 736 mmHg 75%
    09:00 +32°C° 0 mm 4 mps 736 mmHg 71%
    10:00 +33°C° 0 mm 4 mps 736 mmHg 65%
    11:00 +35°C° 0 mm 4 mps 735 mmHg 59%
    12:00 +36°C° 0 mm 3 mps 735 mmHg 53%
    13:00 +37°C° 0 mm 3 mps 735 mmHg 51%
    14:00 +37°C° 0 mm 2 mps 734 mmHg 49%
    15:00 +38°C° 0 mm 2 mps 734 mmHg 47%
    16:00 +37°C° 0 mm 2 mps 734 mmHg 50%
    17:00 +35°C° 0 mm 1 mps 734 mmHg 53%
    18:00 +34°C° 0 mm 1 mps 734 mmHg 56%
    19:00 +32°C° 7.6 mm 2 mps 735 mmHg 65%
    20:00 +31°C° 7.6 mm 3 mps 735 mmHg 73%
    21:00 +29°C° 7.6 mm 5 mps 736 mmHg 82%
    22:00 +29°C° 3.8 mm 4 mps 736 mmHg 82%
    23:00 +28°C° 3.8 mm 4 mps 735 mmHg 82%

    31 May, Friday

    Time Temperature Precipitation Wind Pressure Humidity
    00:00 +28°C° 3.8 mm 4 mps 735 mmHg 82%
    01:00 +28°C° 0 mm 4 mps 735 mmHg 83%
    02:00 +28°C° 0 mm 3 mps 735 mmHg 84%
    03:00 +27°C° 0 mm 3 mps 734 mmHg 85%
    04:00 +27°C° 0 mm 2 mps 734 mmHg 85%
    05:00 +27°C° 0 mm 2 mps 735 mmHg 86%
    06:00 +27°C° 0 mm 2 mps 735 mmHg 86%
    07:00 +29°C° 0 mm 2 mps 736 mmHg 81%
    08:00 +30°C° 0 mm 3 mps 736 mmHg 75%
    09:00 +31°C° 0 mm 3 mps 737 mmHg 70%
    10:00 +34°C° 0 mm 3 mps 736 mmHg 64%
    11:00 +35°C° 0 mm 3 mps 736 mmHg 59%
    12:00 +37°C° 0 mm 2 mps 735 mmHg 53%
    13:00 +37°C° 0 mm 2 mps 735 mmHg 51%
    14:00 +38°C° 0 mm 2 mps 734 mmHg 48%
    15:00 +38°C° 0 mm 2 mps 733 mmHg 46%
    16:00 +37°C° 0 mm 2 mps 734 mmHg 50%
    17:00 +36°C° 0 mm 2 mps 734 mmHg 53%
    18:00 +35°C° 0 mm 2 mps 734 mmHg 57%
    19:00 +35°C° 0 mm 2 mps 735 mmHg 59%
    20:00 +34°C° 0 mm 2 mps 735 mmHg 61%
    21:00 +32°C° 0 mm 2 mps 736 mmHg 64%
    22:00 +32°C° 0 mm 2 mps 735 mmHg 64%
    23:00 +32°C° 0 mm 2 mps 735 mmHg 65%
    Show more